EW4214 Weather Reports


time (UTC)temp
C
wind
direction
speed
KPH
gust
KPH
rain 1hr
cm
rain 24hr
cm
rain mn
cm
humidity
%
barometer
mb
20260505032354 28 199 1.6 6.4 0.00 0.00 0.00 45 1011.4
20260505030901 28 216 1.6 4.8 0.00 0.00 0.00 45 1011.5
20260505030344 27 244 1.6 4.8 0.00 0.00 0.00 46 1011.6
20260505024901 27 135 0.0 3.2 0.00 0.00 0.00 47 1011.7
20260505024340 26 180 0.0 3.2 0.00 0.00 0.00 49 1011.9
20260505023345 26 191 0.0 3.2 0.00 0.00 0.00 49 1011.9
20260505022344 25 203 0.0 3.2 0.00 0.00 0.00 51 1011.8
20260505020901 25 229 4.8 4.8 0.00 0.00 0.00 50 1011.8
20260505015901 25 197 0.0 6.4 0.00 0.00 0.00 50 1011.7
20260505014901 25 177 0.0 4.8 0.00 0.00 0.00 51 1011.6
20260505013901 24 332 1.6 6.4 0.00 0.00 0.00 52 1011.5
20260505012901 24 226 1.6 9.7 0.00 0.00 0.00 52 1011.4
20260505012342 23 121 1.6 3.2 0.00 0.00 0.00 53 1011.4
20260505010900 23 271 3.2 4.8 0.00 0.00 0.00 53 1011.3
20260505005900 23 209 0.0 4.8 0.00 0.00 0.00 54 1011.1
20260505005347 22 148 1.6 3.2 0.00 0.00 0.00 54 1011.0
20260505003901 22 193 0.0 3.2 0.00 0.00 0.00 56 1010.8
20260505002900 22 161 0.0 1.6 0.00 0.00 0.00 57 1010.7
20260505002339 22 189 0.0 0.0 0.00 0.00 0.00 58 1010.7
20260505001356 21 175 0.0 0.0 0.00 0.00 0.00 58 1010.6
20260505000344 21 178 0.0 0.0 0.00 0.00 0.00 60 1010.4
20260504234902 21 178 0.0 0.0 0.00 0.00 0.00 60 1010.3
20260504234350 20 188 0.0 0.0 0.00 0.00 0.00 60 1009.9
20260504232901 20 196 0.0 0.0 0.00 0.00 0.00 60 1009.8
20260504231901 20 203 0.0 0.0 0.00 0.00 0.00 61 1009.6
20260504230900 20 209 0.0 0.0 0.00 0.00 0.00 61 1009.5
20260504225900 20 211 0.0 0.0 0.00 0.00 0.00 61 1009.4
20260504225035 20 210 0.0 1.6 0.00 0.00 0.00 61 1009.2
20260504224031 20 209 0.0 0.0 0.00 0.00 0.00 61 1009.3
20260504223027 20 203 0.0 1.6 0.00 0.00 0.00 61 1009.1
20260504222025 20 212 0.0 1.6 0.00 0.00 0.00 61 1009.0
20260504221024 20 207 0.0 1.6 0.00 0.00 0.00 60 1009.1
20260504220022 20 199 0.0 0.0 0.00 0.00 0.00 61 1009.1
20260504215019 20 196 0.0 0.0 0.00 0.00 0.00 60 1009.1
20260504214013 20 187 0.0 0.0 0.00 0.00 0.00 60 1009.2
20260504213009 20 198 0.0 0.0 0.00 0.00 0.00 60 1009.5
20260504212007 20 195 0.0 0.0 0.00 0.00 0.00 60 1009.5
20260504211510 20 195 0.0 1.6 0.00 0.00 0.00 60 1009.6
20260504210503 20 192 0.0 1.6 0.00 0.00 0.00 60 1009.8
20260504210253 20 189 0.0 0.0 0.00 0.00 0.00 60 1009.8
20260504203950 20 173 1.6 3.2 0.00 0.00 0.00 60 1010.1
20260504203453 20 184 0.0 4.8 0.00 0.00 0.00 60 1010.1
20260504201944 20 169 1.6 6.4 0.00 0.00 0.00 62 1010.3
20260504200939 20 129 3.2 9.7 0.00 0.00 0.00 63 1010.3
20260504195937 20 178 0.0 4.8 0.00 0.00 0.00 63 1010.3
20260504194934 20 168 0.0 3.2 0.00 0.00 0.00 63 1010.3
20260504193932 20 169 0.0 0.0 0.00 0.00 0.00 63 1010.3
20260504192926 21 181 0.0 0.0 0.00 0.00 0.00 62 1010.1
20260504191924 20 182 0.0 0.0 0.00 0.00 0.00 62 1010.0
20260504190919 20 180 0.0 1.6 0.00 0.00 0.00 62 1009.9
20260504190414 21 170 0.0 3.2 0.00 0.00 0.00 61 1010.0
20260504184926 21 144 1.6 4.8 0.00 0.00 0.00 61 1010.4
20260504184917 21 177 0.0 4.8 0.00 0.00 0.00 61 1010.1
20260504182912 21 148 0.0 4.8 0.00 0.00 0.00 61 1010.5
20260504181908 21 123 1.6 11.3 0.00 0.00 0.00 61 1010.9
20260504180910 21 165 0.0 6.4 0.00 0.00 0.00 61 1010.8
20260504180410 21 152 0.0 3.2 0.00 0.00 0.00 61 1011.0
20260504174903 21 153 1.6 6.4 0.00 0.00 0.00 63 1011.5
20260504173903 21 98 1.6 9.7 0.00 0.00 0.00 61 1011.5
20260504172903 21 169 0.0 16.1 0.00 0.00 0.00 61 1011.6
20260504171902 21 101 3.2 20.9 0.00 0.00 0.00 61 1012.1
20260504171341 21 105 6.4 22.5 0.00 0.00 0.00 62 1012.5
20260504150902 22 187 0.0 0.0 0.00 0.00 0.00 61 1010.8
20260504140901 22 191 0.0 0.0 0.00 0.00 0.00 61 1010.4
20260504080931 30 220 1.6 9.7 0.00 0.00 0.00 45 1006.4
20260504045857 36 143 3.2 9.7 0.00 0.00 0.00 34 1009.5
20260504044857 35 192 0.0 11.3 0.00 0.00 0.00 35 1009.6
20260504043857 34 116 4.8 9.7 0.00 0.00 0.00 34 1009.8
20260504042856 34 200 0.0 9.7 0.00 0.00 0.00 36 1009.8
20260504041857 32 143 0.0 4.8 0.00 0.00 0.00 39 1010.0
20260504040856 32 196 0.0 6.4 0.00 0.00 0.00 40 1010.2
20260504040827 32 148 1.6 4.8 0.00 0.00 0.00 40 1010.3
20260504034856 32 211 3.2 11.3 0.00 0.00 0.00 41 1010.3
20260504034349 32 165 0.0 6.4 0.00 0.00 0.00 42 1010.2
20260504033841 32 174 1.6 11.3 0.00 0.00 0.00 42 1010.4